Powrót do katalogu

STARLINK-31266

AktywnyŁącznośćVLEO
NORAD 59087·PAYLOAD·🇺🇸 United States

Wystrzelony Feb 29, 2024 z Cape Canaveral Space Force Station

Loading…

Następne Przeloty (najbliższe 24 godziny)

TLE

ŚwieżeSource: CelesTrak SupGP

Epoka: Sep 15, 2026, 02:35 UTC

1 59087C 24041P   26258.10812500  .00046859  00000+0  16971-2 0  2585
2 59087  43.0014 320.8124 0001579 262.9625  54.4902 15.27557881    11

Śledź STARLINK-31266 w czasie rzeczywistym z AllMySat

Download on the App Store